SHT15CK EGJB-EGLL

Flight info

Callsign SHT15CK
Flight time 0h 33m
Altitude 19000
Route ORIST1F ORIST L982 ROXOG ROXOG1H
Aircraft A319/M-SDE3FGIJ1KRWXY/LB1

Departure

Time 2026-04-30 13:53
Airport Guernsey Airport (EGJB)

Arrival

Time 2026-04-30 14:26
Airport London Heathrow Airport (EGLL)
Time Latitude Longitude Altitude Speed Heading
2026-04-30 13:15 49.43255 -2.59684 328 ft 0 kts 178°
2026-04-30 13:45 49.43273 -2.59686 328 ft 3 kts 177°
2026-04-30 13:45 49.43295 -2.59687 328 ft 3 kts 178°
2026-04-30 13:46 49.43318 -2.59687 326 ft 3 kts 187°
2026-04-30 13:46 49.43338 -2.59679 328 ft 2 kts 211°
2026-04-30 13:46 49.43354 -2.59661 324 ft 3 kts 238°
2026-04-30 13:46 49.43361 -2.59631 327 ft 3 kts 265°
2026-04-30 13:47 49.43362 -2.59616 330 ft 0 kts 268°
2026-04-30 13:48 49.43361 -2.59650 328 ft 6 kts 268°
2026-04-30 13:49 49.43350 -2.59754 328 ft 13 kts 256°
2026-04-30 13:49 49.43343 -2.59905 320 ft 10 kts 267°
2026-04-30 13:49 49.43338 -2.60077 308 ft 22 kts 269°
2026-04-30 13:49 49.43330 -2.60362 294 ft 25 kts 268°
2026-04-30 13:50 49.43326 -2.60588 294 ft 15 kts 272°
2026-04-30 13:50 49.43359 -2.60899 308 ft 14 kts 280°
2026-04-30 13:50 49.43362 -2.61034 311 ft 13 kts 268°
2026-04-30 13:51 49.43359 -2.61181 313 ft 9 kts 268°
2026-04-30 13:51 49.43359 -2.61199 313 ft 0 kts 268°
2026-04-30 13:51 49.43359 -2.61224 313 ft 5 kts 273°
2026-04-30 13:51 49.43380 -2.61287 314 ft 8 kts 309°
2026-04-30 13:52 49.43425 -2.61354 316 ft 10 kts 331°
2026-04-30 13:52 49.43469 -2.61315 314 ft 3 kts 92°
2026-04-30 13:52 49.43470 -2.61206 314 ft 27 kts 88°
2026-04-30 13:52 49.43493 -2.60389 310 ft 123 kts 87°
2026-04-30 13:53 49.43526 -2.58863 886 ft 143 kts 88°
2026-04-30 13:53 49.43564 -2.57372 1767 ft 139 kts 91°
2026-04-30 13:53 49.43609 -2.55818 2245 ft 155 kts 91°
2026-04-30 13:53 49.43656 -2.54013 2666 ft 178 kts 92°
2026-04-30 13:54 49.43704 -2.52008 3015 ft 203 kts 91°
2026-04-30 13:54 49.44026 -2.49806 3628 ft 223 kts 61°
2026-04-30 13:54 49.45243 -2.48274 4453 ft 236 kts 26°
2026-04-30 13:54 49.46814 -2.47475 5375 ft 240 kts 17°
2026-04-30 13:55 49.48466 -2.46901 6193 ft 252 kts 14°
2026-04-30 13:55 49.50261 -2.46335 6683 ft 275 kts 13°
2026-04-30 13:55 49.52202 -2.45715 7329 ft 291 kts 14°
2026-04-30 13:55 49.54202 -2.45045 8219 ft 297 kts 15°
2026-04-30 13:56 49.56228 -2.44332 9162 ft 301 kts 15°
2026-04-30 13:56 49.58276 -2.43582 10096 ft 304 kts 16°
2026-04-30 13:56 49.60344 -2.42797 10923 ft 308 kts 17°
2026-04-30 13:56 49.62440 -2.41993 11747 ft 313 kts 17°
2026-04-30 13:57 49.64570 -2.41172 12580 ft 317 kts 17°
2026-04-30 13:57 49.66720 -2.40340 13413 ft 321 kts 18°
2026-04-30 13:57 49.68839 -2.39280 14170 ft 321 kts 28°
2026-04-30 13:57 49.70764 -2.37525 14769 ft 325 kts 41°
2026-04-30 13:58 49.72437 -2.35051 14931 ft 342 kts 54°
2026-04-30 13:58 49.75614 -2.29182 15835 ft 363 kts 54°
2026-04-30 13:58 49.77258 -2.26180 16488 ft 367 kts 54°
2026-04-30 13:59 49.78925 -2.23157 17126 ft 371 kts 54°
2026-04-30 13:59 49.80608 -2.20107 17788 ft 374 kts 55°
2026-04-30 13:59 49.82288 -2.17059 18425 ft 378 kts 55°
2026-04-30 13:59 49.83999 -2.13938 18899 ft 382 kts 55°
2026-04-30 14:00 49.85718 -2.10797 19050 ft 382 kts 55°
2026-04-30 14:00 49.89175 -2.04468 19099 ft 385 kts 55°
2026-04-30 14:00 49.90905 -2.01290 19103 ft 386 kts 55°
2026-04-30 14:01 49.92635 -1.98110 19118 ft 386 kts 55°
2026-04-30 14:01 49.94362 -1.94925 19117 ft 386 kts 55°
2026-04-30 14:01 49.96090 -1.91736 19117 ft 386 kts 55°
2026-04-30 14:01 49.97819 -1.88544 19122 ft 386 kts 56°
2026-04-30 14:02 49.99686 -1.85513 19122 ft 392 kts 46°
2026-04-30 14:02 50.01916 -1.83019 19123 ft 399 kts 35°
2026-04-30 14:02 50.04392 -1.81031 19110 ft 401 kts 32°
2026-04-30 14:02 50.06884 -1.79077 19121 ft 401 kts 32°
2026-04-30 14:03 50.09372 -1.77115 19127 ft 401 kts 32°
2026-04-30 14:03 50.11828 -1.75094 19130 ft 398 kts 37°
2026-04-30 14:03 50.14041 -1.72567 19136 ft 392 kts 46°
2026-04-30 14:03 50.16135 -1.69824 19138 ft 392 kts 45°
2026-04-30 14:04 50.18233 -1.67099 19140 ft 392 kts 45°
2026-04-30 14:04 50.20336 -1.64380 19136 ft 393 kts 45°
2026-04-30 14:04 50.22440 -1.61656 19136 ft 393 kts 45°
2026-04-30 14:04 50.24547 -1.58931 19142 ft 394 kts 44°
2026-04-30 14:05 50.26849 -1.56552 19143 ft 400 kts 33°
2026-04-30 14:05 50.29437 -1.54860 19143 ft 407 kts 22°
2026-04-30 14:05 50.32144 -1.53563 19147 ft 407 kts 21°
2026-04-30 14:05 50.34816 -1.52267 19147 ft 407 kts 21°
2026-04-30 14:06 50.37548 -1.50926 19145 ft 407 kts 22°
2026-04-30 14:06 50.42913 -1.48277 19145 ft 406 kts 22°
2026-04-30 14:07 50.48228 -1.45647 18955 ft 392 kts 22°
2026-04-30 14:07 50.50819 -1.44368 18619 ft 389 kts 22°
2026-04-30 14:07 50.53376 -1.43050 18212 ft 384 kts 26°
2026-04-30 14:08 50.58039 -1.39242 17343 ft 374 kts 33°
2026-04-30 14:08 50.60313 -1.37287 16977 ft 370 kts 33°
2026-04-30 14:08 50.64813 -1.33424 16472 ft 367 kts 33°
2026-04-30 14:09 50.67061 -1.31499 16269 ft 366 kts 33°
2026-04-30 14:09 50.69289 -1.29583 16078 ft 365 kts 33°
2026-04-30 14:09 50.73733 -1.25743 15680 ft 362 kts 33°
2026-04-30 14:10 50.75941 -1.23831 15478 ft 361 kts 33°
2026-04-30 14:10 50.78108 -1.21829 15288 ft 359 kts 36°
2026-04-30 14:10 50.80189 -1.19740 15096 ft 357 kts 37°
2026-04-30 14:10 50.82243 -1.17583 14905 ft 355 kts 38°
2026-04-30 14:11 50.84289 -1.15400 14715 ft 354 kts 38°
2026-04-30 14:11 50.86334 -1.13224 14526 ft 353 kts 38°
2026-04-30 14:11 50.88375 -1.11073 14333 ft 352 kts 38°
2026-04-30 14:11 50.90416 -1.08946 14148 ft 351 kts 37°
2026-04-30 14:12 50.92448 -1.06838 13966 ft 349 kts 37°
2026-04-30 14:12 50.94478 -1.04735 13733 ft 348 kts 37°
2026-04-30 14:12 50.96514 -1.02625 13471 ft 346 kts 37°
2026-04-30 14:12 50.97830 -1.01257 13305 ft 345 kts 37°
2026-04-30 14:13 51.00460 -0.98337 12955 ft 341 kts 45°
2026-04-30 14:13 51.02103 -0.95671 12698 ft 336 kts 53°
2026-04-30 14:13 51.03657 -0.92901 12452 ft 335 kts 52°
2026-04-30 14:13 51.05203 -0.90148 12197 ft 333 kts 52°
2026-04-30 14:14 51.06741 -0.87403 11947 ft 332 kts 52°
2026-04-30 14:14 51.08277 -0.84666 11701 ft 331 kts 52°
2026-04-30 14:14 51.09806 -0.81941 11458 ft 330 kts 52°
2026-04-30 14:14 51.11313 -0.79258 11220 ft 329 kts 52°
2026-04-30 14:15 51.12834 -0.76548 10977 ft 327 kts 52°
2026-04-30 14:15 51.14330 -0.73877 10770 ft 319 kts 52°
2026-04-30 14:15 51.15792 -0.71260 10562 ft 313 kts 53°
2026-04-30 14:15 51.17230 -0.68685 10339 ft 309 kts 53°
2026-04-30 14:16 51.18648 -0.66148 10135 ft 304 kts 53°
2026-04-30 14:16 51.20045 -0.63644 9907 ft 301 kts 53°
2026-04-30 14:16 51.21427 -0.61161 9670 ft 296 kts 53°
2026-04-30 14:16 51.22775 -0.58731 9499 ft 291 kts 53°
2026-04-30 14:17 51.24108 -0.56318 9276 ft 288 kts 53°
2026-04-30 14:17 51.24989 -0.54722 9135 ft 286 kts 53°
2026-04-30 14:17 51.26764 -0.51629 8837 ft 286 kts 45°
2026-04-30 14:17 51.28575 -0.50285 8611 ft 294 kts 11°
2026-04-30 14:18 51.29932 -0.50355 8451 ft 297 kts 348°
2026-04-30 14:18 51.31729 -0.51912 8237 ft 296 kts 313°
2026-04-30 14:18 51.33426 -0.57707 7823 ft 288 kts 283°
2026-04-30 14:19 51.34546 -0.63819 7382 ft 286 kts 282°
2026-04-30 14:19 51.35103 -0.66848 7171 ft 280 kts 283°
2026-04-30 14:19 51.35655 -0.69821 6885 ft 278 kts 283°
2026-04-30 14:20 51.36213 -0.72800 6475 ft 279 kts 283°
2026-04-30 14:20 51.36829 -0.75737 6047 ft 278 kts 294°
2026-04-30 14:20 51.39901 -0.78750 5414 ft 264 kts
2026-04-30 14:21 51.41723 -0.78851 5074 ft 261 kts
2026-04-30 14:21 51.43530 -0.78934 4708 ft 258 kts
2026-04-30 14:21 51.46820 -0.77954 3995 ft 230 kts 45°
2026-04-30 14:22 51.47632 -0.75917 3522 ft 215 kts 85°
2026-04-30 14:22 51.47635 -0.71397 2923 ft 187 kts 92°
2026-04-30 14:22 51.47646 -0.69389 2695 ft 174 kts 92°
2026-04-30 14:23 51.47666 -0.65789 2242 ft 151 kts 92°
2026-04-30 14:23 51.47683 -0.62489 1844 ft 146 kts 92°
2026-04-30 14:24 51.47699 -0.59249 1459 ft 142 kts 92°
2026-04-30 14:24 51.47707 -0.57727 1271 ft 129 kts 92°
2026-04-30 14:25 51.47719 -0.55035 933 ft 117 kts 91°
2026-04-30 14:25 51.47728 -0.52392 621 ft 118 kts 90°
2026-04-30 14:26 51.47746 -0.49771 278 ft 115 kts 89°
2026-04-30 14:26 51.47751 -0.48493 126 ft 115 kts 88°
2026-04-30 14:26 51.47757 -0.46663 91 ft 37 kts 89°
2026-04-30 14:27 51.47757 -0.46258 90 ft 26 kts 91°
2026-04-30 14:27 51.47697 -0.46139 89 ft 10 kts 142°
2026-04-30 14:27 51.47638 -0.46074 86 ft 8 kts 159°
2026-04-30 14:28 51.47595 -0.46298 89 ft 16 kts 269°
2026-04-30 14:28 51.47593 -0.46504 86 ft 21 kts 269°
2026-04-30 14:28 51.47592 -0.46749 86 ft 20 kts 270°
2026-04-30 14:28 51.47583 -0.46901 86 ft 15 kts 269°
2026-04-30 14:29 51.47581 -0.47330 88 ft 23 kts 270°
2026-04-30 14:29 51.47580 -0.47780 86 ft 20 kts 270°
2026-04-30 14:30 51.47569 -0.48468 86 ft 11 kts 234°
2026-04-30 14:31 51.47487 -0.48600 88 ft 13 kts 270°
2026-04-30 14:31 51.47472 -0.48828 88 ft 7 kts 203°
2026-04-30 14:31 51.47427 -0.48829 86 ft 6 kts 180°
2026-04-30 14:32 51.47403 -0.48829 86 ft 0 kts 180°